Regional Weather Roundup
Issued by NWS

Home | Current Version | Previous Version | Text Only | Print | Product List | Glossary On
Versions: 1 2 3 4 5 6 7 8 9 10 11 12 13 14 15 16 17 18 19 20 21 22 23 24 25 26 27 28 29 30 31 32 33 34 35 36 37 38 39 40 41 42 43 44 45 46 47 48 49 50
000
ASUS45 KTFX 010810
RWRMT
MONTANA REGIONAL WEATHER ROUNDUP
NATIONAL WEATHER SERVICE GREAT FALLS MT
200 AM MDT SAT AUG 01 2015

NOTE: "FAIR" INDICATES FEW OR NO CLOUDS BELOW 12000 FEET WITH NO
SIGNIFICANT WEATHER AND/OR OBSTRUCTIONS TO VISIBILITY.

MTZ001>007-043-010900-
WEST OF THE DIVIDE

CITY           SKY/WX    TMP DP  RH WIND       PRES   REMARKS
KALISPELL      SUNNY     52  36  54 NW3       30.01S
MISSOULA       CLEAR     66  34  30 CALM      30.08S
BUTTE          CLEAR     52  36  54 SE7       30.26F
MULLAN PASS    CLEAR     70  22  16 VRB5      30.25F
DEER LODGE       N/A     52  36  54 CALM      30.22F
EUREKA           N/A     61  34  36 CALM      29.99S
HAMILTON         N/A     66  32  28 S12       30.10F
LIBBY            N/A     57  34  41 CALM      30.01S
PLAINS           N/A     59  36  42 CALM      30.03S
RONAN            N/A     54  42  63 CALM      30.08S
THOMPSON FALLS   N/A     57  31  37 CALM      30.06S
$$

MTZ008-052>055-010900-
SOUTHWEST MONTANA

CITY           SKY/WX    TMP DP  RH WIND       PRES   REMARKS
BOZEMAN        CLEAR     55  42  61 S8        30.17F
DILLON         CLEAR     57  35  43 S10       30.23S
W YELLOWSTONE  CLEAR     39  37  93 CALM      30.35S
THREE FORKS      N/A     52  45  77 CALM      30.14F
TWIN BRIDGES     N/A     57  36  45 E5        30.18F
$$

MTZ009-010-012-014-046-048-049-054-010900-
EAST SLOPES AND CENTRAL MONTANA

CITY           SKY/WX    TMP DP  RH WIND       PRES   REMARKS
CUT BANK       CLEAR     61  32  33 W10       30.04F
GREAT FALLS    CLEAR     66  33  29 SW10      30.05S
MALMSTROM AFB  CLEAR     68  37  32 W8        30.04S
HELENA         CLEAR     67  34  29 CALM      30.12F
CONRAD           N/A     54  42  63 CALM      30.06S
$$

MTZ011-013-016-021-045-047-050-051-010900-
NORTH CENTRAL MONTANA

CITY           SKY/WX    TMP DP  RH WIND       PRES   REMARKS
HAVRE          CLEAR     66  43  43 S7        29.95F
LEWISTOWN      CLEAR     58  41  53 S6        30.11S
CHINOOK          N/A     61  52  72 CALM      29.96F
FORT BENTON      N/A     61  43  51 S5        30.00F
$$

MTZ017>020-022>027-061-062-010900-
NORTHEAST MONTANA

CITY           SKY/WX    TMP DP  RH WIND       PRES   REMARKS
GLASGOW        CLEAR     64  50  60 E12       29.97F
JORDAN           N/A     58  44  60 W5        30.02S
SIDNEY         CLEAR    N/A N/A N/A N8        29.96F
WOLF POINT     CLEAR     62  50  64 E5        29.98F
MALTA            N/A     57  50  78 CALM      29.94F
PLENTYWOOD       N/A     63  48  59 E6        30.01F
POPLAR           N/A     61  52  72 NE8       29.98F
SCOBEY           N/A     65  46  50 E9        29.99F
$$

MTZ028>42-056>058-010900-
SOUTHCENTRAL AND SOUTHEAST MONTANA

CITY           SKY/WX    TMP DP  RH WIND       PRES   REMARKS
BAKER          CLEAR     68  47  46 SW5       30.02F
BILLINGS       CLEAR     71  38  29 S8        30.11F
LIVINGSTON     CLEAR     56  40  55 VRB3      30.18F
MILES CITY     CLEAR     64  42  44 NW9       30.00F
FORSYTH          N/A     70  41  35 CALM      30.02F
LAUREL           N/A     65  35  32 W1        30.08F
ROUNDUP          N/A     62  41  46 SW7       30.00F
$$

REGIONAL REPORTS...DAKOTAS

CITY           SKY/WX    TMP DP  RH WIND       PRES   REMARKS
WILLISTON      CLEAR     62  53  72 N7        30.00F
MINOT          CLEAR     57  51  80 CALM      30.01F
DICKINSON      CLEAR     56  50  80 E9        30.00F
CROSBY         FAIR      54  54 100 S5        30.02F
BISMARCK       MOCLDY    61  57  87 NE7       30.02F
GRAND FORKS    CLEAR     56  51  84 W3        29.95F
FARGO          CLEAR     58  54  86 SW3       29.98F
BUFFALO SD       N/A     65  49  56 S7        29.97F
RAPID CITY     PTCLDY    67  53  61 S7        30.09F
$$

REGIONAL REPORTS...WYOMING/IDAHO/WASHINGTON

CITY           SKY/WX    TMP DP  RH WIND       PRES   REMARKS
GILLETTE       CLEAR     69  49  48 S14       30.12F
SHERIDAN       CLEAR     60  44  55 NW3       30.11F
BUFFALO WY     CLEAR     68  37  32 W7        30.18F
CODY           CLEAR     66  30  26 SW5       30.22F
YELLOWSTONE LA   N/A     42  31  64 NW3       30.45F
IDAHO FALLS    CLEAR     54  44  69 N3        30.19F
SALMON         CLEAR     55  43  62 CALM      30.17R
BOISE          PTCLDY    76  36  23 SE8       30.00S
SPOKANE        CLEAR     76  24  14 S5        29.97S
$$

REGIONAL REPORTS...ALBERTA

CITY           SKY/WX    TMP DP  RH WIND       PRES   REMARKS
EDMONTON       CLEAR     54  48  82 CALM      29.96S
CALGARY        PTCLDY    59  50  72 N6        30.01S
LETHBRIDGE     CLEAR     59  43  55 SW16      29.97F
MEDICINE HAT   CLEAR     61  45  55 VRB2      29.90F
WATERTON GATE    N/A     52  39  62 SW8         N/A
CARDSTON         N/A     64  34  32 SW12        N/A
MILK RIVER       N/A     55  39  54 NW7         N/A
ONEFOUR          N/A     61  41  48 E3          N/A
$$

REGIONAL REPORTS...SASKATCHEWAN

CITY           SKY/WX    TMP DP  RH WIND       PRES   REMARKS
SWIFT CURRENT  CLEAR     61  54  77 SE16      29.97F
REGINA         CLEAR     54  52  94 SE8       29.99F
SASKATOON      MOCLDY    61  54  77 S6        29.93F
CYPRESS HILLS    N/A     61  46  59 S6          N/A
VAL MARIE        N/A     61  52  72 NE1         N/A
ROCKGLEN         N/A     57  48  72 NE2         N/A
$$


USA.gov is the U.S. government's official web portal to all federal, state and local government web resources and services.